NOAA 17 DEB, 48184

Orbit data source: Space-Track

NOAA 17 DEB, 48184 is space debris in SSO originally from a launch on Mon, 24 Jun 2002 UTC launched from the Air Force Western Test Range (AFWTR). Debris objects in space refer to the collection of defunct objects orbiting the Earth. Examples of debris include non-operational satellites, rocket bodies, and fragments generated from explosions, collisions, or faulty payload assembly.

Loading next visibility...
Identifier
48184, 2002-032Z
Orbit
SSO
Country
Flag of USUS
Related business
Manufacturer
Unknown
Mission
Spacecraft
Bus & Motor
Unknown
Mass
Unknown
Launch date (UTC)
2002-06-24 (24 years ago)
Launch vehicle
Unknown
Launch site
Air Force Western Test Range (AFWTR)
Object type
Payload
Rocket body
Debris
Shape & HBR
Unknown shape, 0.1 m
Radar Cross Section
Medium (>0.1 m² and <1 m²)

Expand to show TLE details & history
Last TLE update: 4 days ago

TLE from 4 days ago
0 NOAA 17 DEB
1 48184U 02032Z   26169.46881500  .00004724  00000-0  11767-2 0  9999
2 48184  98.8316 169.9023 0010151 254.7843 105.2228 14.52141552272969
Epoch: 2026-06-18T11:15Z
TLE epoch observation values (Epoch: 2026-06-18T11:15:05.615Z)
Latitude
-0.00011°
Longitude
94.41722°
Altitude
723.516 km
Speed
7.493 km/s
True Right ascension
11h 19m 36s
True Declination
0° 00' 00"
Sunlit
Object was in daylight at epoch
Visualization orbit readout
Latitude
Unknown
Longitude
Unknown
Altitude
Unknown
Speed
Unknown
Apparent Right ascension
Unknown
Apparent Declination
Unknown
Sunlit
N/A
Visualization observer readout
Local Sidereal Time
21:45:15
Azimuth
Unknown
Elevation
Unknown
Doppler factor
Unknown
Orbital elements
Apogee altitude
722.985 km
Perigee altitude
708.583 km
Semi-major axis
7,093.921 km
Eccentricity
0.00102
Inclination
98.8316°
RAAN
169.9023°
Arg. of periapsis
254.7843°
True anomaly
105.335°
Mean anomaly
105.2228°
Eccentric anomaly
105.27891°
Mean motion
3.63257 °/min
Orbital period
99.1 mins
BSTAR
0.0011767
Loading maneuver chart data...
Computing Atmospheric mass density...

Documentation

Showing up to 5 results
|